TimeMST,TemperatureF,Dew PointF,Humidity,Sea Level PressureIn,VisibilityMPH,Wind Direction,Wind SpeedMPH,Gust SpeedMPH,PrecipitationIn,Events,Conditions,WindDirDegrees,DateUTC
12:53 AM,32.0,18.0,56,29.68,10.0,NW,10.4,17.3,N/A,,Scattered Clouds,310,2013-02-21 07:53:00
1:53 AM,30.9,18.0,59,29.70,10.0,West,5.8,-,N/A,,Overcast,280,2013-02-21 08:53:00
2:53 AM,32.0,17.1,54,29.69,10.0,NNW,12.7,23.0,N/A,,Overcast,330,2013-02-21 09:53:00
3:53 AM,30.0,16.0,56,29.70,10.0,NNW,15.0,25.3,N/A,,Mostly Cloudy,330,2013-02-21 10:53:00
4:53 AM,30.0,15.1,54,29.73,10.0,NW,12.7,23.0,N/A,,Overcast,320,2013-02-21 11:53:00
5:53 AM,28.4,14.0,55,29.69,10.0,NNW,15.0,24.2,N/A,,Clear,330,2013-02-21 12:53:00
6:53 AM,28.0,14.0,56,29.79,10.0,NNW,19.6,25.3,N/A,,Clear,330,2013-02-21 13:53:00
7:53 AM,28.9,12.9,51,29.82,10.0,NW,13.8,21.9,N/A,,Clear,320,2013-02-21 14:53:00
8:53 AM,30.9,12.9,47,29.83,10.0,NW,13.8,20.7,N/A,,Clear,320,2013-02-21 15:53:00
9:53 AM,33.1,12.0,42,29.84,10.0,NW,13.8,23.0,N/A,,Clear,320,2013-02-21 16:53:00
10:53 AM,35.1,14.0,42,29.85,10.0,NW,12.7,20.7,N/A,,Clear,320,2013-02-21 17:53:00
11:53 AM,36.0,14.0,41,29.85,10.0,NNW,12.7,-,N/A,,Scattered Clouds,330,2013-02-21 18:53:00
12:53 PM,36.0,12.9,39,29.85,10.0,NW,10.4,18.4,N/A,,Partly Cloudy,320,2013-02-21 19:53:00
1:53 PM,37.9,14.0,38,29.83,10.0,NW,11.5,-,N/A,,Overcast,310,2013-02-21 20:53:00
2:53 PM,37.9,14.0,38,29.83,10.0,NW,11.5,18.4,N/A,,Clear,320,2013-02-21 21:53:00
3:53 PM,37.0,14.0,39,29.84,10.0,NNW,15.0,20.7,N/A,,Clear,340,2013-02-21 22:53:00
4:53 PM,35.1,12.9,40,29.87,10.0,NNW,15.0,21.9,N/A,,Clear,340,2013-02-21 23:53:00
5:53 PM,30.9,10.9,43,29.91,10.0,NNW,15.0,21.9,N/A,,Clear,330,2013-02-22 00:53:00
6:53 PM,28.9,12.0,49,29.94,10.0,NW,15.0,24.2,N/A,,Clear,320,2013-02-22 01:53:00
7:53 PM,28.0,10.9,49,29.97,10.0,NW,17.3,25.3,N/A,,Clear,310,2013-02-22 02:53:00
8:53 PM,28.0,10.0,47,29.98,10.0,NW,19.6,26.5,N/A,,Overcast,320,2013-02-22 03:53:00
9:53 PM,26.1,10.0,51,29.99,10.0,NW,16.1,24.2,N/A,,Clear,320,2013-02-22 04:53:00
10:53 PM,25.0,9.0,51,30.00,10.0,NW,16.1,20.7,N/A,,Clear,320,2013-02-22 05:53:00
11:53 PM,24.1,8.1,51,30.00,10.0,NNW,10.4,-,N/A,,Clear,330,2013-02-22 06:53:00